Crossville, TN

6:28 AM CDT on August 18, 2017 (GMT -0500)
Crossville Memorial-Whitson

Weather History for KCSV - February, 2014

Change the Weather History Date:

Monday, February 3, 2014

  Actual Average Record
Temperature  
Mean Temperature 33 °F 37 °F  
Max Temperature 36 °F 46 °F 68 °F (1986)
Min Temperature 30 °F 28 °F -5 °F (1965)
Degree Days  
Heating Degree Days 32    
Month to date heating degree days 72  
Since 1 July heating degree days 2844  
Cooling Degree Days 0    
Month to date cooling degree days 0  
Year to date cooling degree days 0  
Moisture  
Dew Point 31 °F    
Average Humidity 95    
Maximum Humidity 100    
Minimum Humidity 89    
Precipitation  
Precipitation 0.33 in 0.17 in 1.95 in (1990)
Month to date precipitation 1.43 0.49  
Year to date precipitation 3.66 5.25  
Sea Level Pressure  
Sea Level Pressure 30.12 in    
Wind  
Wind Speed 7 mph (NNE)    
Max Wind Speed 18 mph    
Max Gust Speed 26 mph    
Visibility 4 miles    
Events Fog , Rain    
T = Trace of Precipitation, MM = Missing Value Source: NWS Daily Summary

Daily Weather History Graph

Daily Weather History Graph

Search for Another Location

Airport or City:

Trip Planner

Search our weather history database for the weather conditions in past years. The results will help you decide how hot, cold, wet, or windy it might be!

Date:

Astronomy

Feb. 03, 2014 Rise Set
Actual Time 6:39 AM CST 5:09 PM CST
Civil Twilight 6:12 AM CST 5:36 PM CST
Nautical Twilight 5:41 AM CST 6:06 PM CST
Astronomical Twilight 5:11 AM CST 6:36 PM CST
Moon 8:50 AM CST (2/3) 9:48 PM CST (2/3)
Length of Visible Light 11h 23m
Length of Day
10h 30m
Waxing Crescent, 20% of the Moon is Illuminated
Feb 3
Waxing Crescent
Feb 6
First Quarter
Feb 14
Full
Feb 22
Last Quarter
Mar 1
New

Hourly Weather History & Observations

Time (CST) Temp. Windchill Dew Point Humidity Pressure Visibility Wind Dir Wind Speed Gust Speed Precip Events Conditions
12:23 AM 35.6 °F 27.1 °F 33.8 °F 93% 29.92 in 2.5 mi NE 12.7 mph 21.9 mph 0.13 in Rain Heavy Rain
12:28 AM 35.6 °F 27.1 °F 33.8 °F 93% 29.92 in 3.0 mi NNE 12.7 mph 21.9 mph 0.14 in Rain Heavy Rain
12:31 AM 35.6 °F 28.6 °F 33.8 °F 93% 29.94 in 3.0 mi North 9.2 mph 20.7 mph 0.15 in Rain Rain
12:53 AM 35.1 °F 26.4 °F 34.0 °F 96% 29.92 in 5.0 mi NE 12.7 mph 18.4 mph 0.21 in Rain Light Rain
1:04 AM 35.6 °F 28.6 °F 33.8 °F 93% 29.91 in 8.0 mi ENE 9.2 mph - 0.01 in Rain Light Rain
1:53 AM 35.1 °F 29.3 °F 34.0 °F 96% 29.88 in 6.0 mi NE 6.9 mph - 0.08 in Rain Rain
2:11 AM 35.6 °F 29.2 °F 33.8 °F 93% 29.90 in 5.0 mi NNE 8.1 mph - 0.01 in Rain Rain
2:53 AM 34.0 °F 28.8 °F 33.1 °F 96% 29.92 in 10.0 mi NE 5.8 mph - 0.03 in   Overcast
3:53 AM 33.1 °F 26.9 °F 32.0 °F 96% 29.91 in 10.0 mi NNE 6.9 mph - 0.04 in   Overcast
4:50 AM 32.0 °F 23.6 °F 30.2 °F 93% 29.99 in 4.0 mi NW 10.4 mph 20.7 mph 0.00 in   Overcast
4:53 AM 32.0 °F 23.0 °F 30.9 °F 96% 30.01 in 3.0 mi NW 11.5 mph - 0.00 in   Overcast
4:59 AM 32.0 °F 24.8 °F 30.2 °F 93% 30.00 in 1.8 mi NW 8.1 mph - N/A   Overcast
5:09 AM 32.0 °F 24.2 °F 30.2 °F 93% 30.00 in 2.0 mi NNW 9.2 mph - N/A   Overcast
5:23 AM 32.0 °F 23.6 °F 30.2 °F 93% 30.03 in 3.0 mi North 10.4 mph - 0.00 in Rain Light Freezing Rain
5:46 AM 32.0 °F 24.2 °F 30.2 °F 93% 30.06 in 3.0 mi NNW 9.2 mph - 0.00 in Rain Light Freezing Rain
5:53 AM 32.0 °F 23.6 °F 30.0 °F 92% 30.09 in 2.5 mi NNW 10.4 mph - 0.00 in Rain Light Freezing Rain
6:02 AM 30.2 °F 21.9 °F 30.2 °F 100% 30.07 in 2.0 mi NNW 9.2 mph - 0.00 in   Overcast
6:20 AM 30.2 °F 20.8 °F 30.2 °F 100% 30.09 in 3.0 mi NNW 11.5 mph - 0.00 in   Overcast
6:53 AM 30.9 °F 23.5 °F 28.0 °F 89% 30.14 in 10.0 mi North 8.1 mph 18.4 mph 0.00 in   Overcast
7:53 AM 30.9 °F 22.2 °F 28.9 °F 92% 30.15 in 10.0 mi NNE 10.4 mph - N/A   Overcast
8:53 AM 32.0 °F 26.4 °F 30.0 °F 92% 30.19 in 10.0 mi North 5.8 mph - N/A   Overcast
9:53 AM 33.1 °F 26.1 °F 30.9 °F 92% 30.21 in 10.0 mi North 8.1 mph - N/A   Overcast
10:53 AM 33.1 °F 26.1 °F 30.9 °F 92% 30.21 in 10.0 mi North 8.1 mph - N/A   Overcast
11:53 AM 33.1 °F 26.9 °F 30.9 °F 92% 30.20 in 6.0 mi NNE 6.9 mph - N/A   Overcast
12:53 PM 34.0 °F 27.2 °F 32.0 °F 92% 30.18 in 7.0 mi NNE 8.1 mph - N/A   Overcast
1:53 PM 35.1 °F 30.1 °F 32.0 °F 89% 30.19 in 8.0 mi North 5.8 mph - N/A   Overcast
2:53 PM 34.0 °F 26.6 °F 30.9 °F 89% 30.19 in 7.0 mi NE 9.2 mph - N/A   Overcast
3:53 PM 33.1 °F 25.5 °F 30.9 °F 92% 30.21 in 5.0 mi NNE 9.2 mph - N/A   Overcast
4:53 PM 32.0 °F 25.6 °F 30.9 °F 96% 30.22 in 3.0 mi NNE 6.9 mph - N/A   Overcast
5:53 PM 32.0 °F 26.4 °F 30.0 °F 92% 30.24 in 3.0 mi NNE 5.8 mph - N/A   Overcast
6:02 PM 32.0 °F 26.4 °F 30.2 °F 93% 30.20 in 2.0 mi NNE 5.8 mph - N/A   Overcast
6:09 PM 32.0 °F 25.6 °F 30.2 °F 93% 30.20 in 1.5 mi NNE 6.9 mph - N/A   Overcast
6:44 PM 30.2 °F 24.3 °F 30.2 °F 100% 30.20 in 2.5 mi NE 5.8 mph - N/A   Overcast
6:53 PM 30.9 °F 24.3 °F 30.0 °F 96% 30.25 in 1.5 mi NE 6.9 mph - N/A   Overcast
7:22 PM 30.2 °F 24.3 °F 30.2 °F 100% 30.20 in 0.8 mi NE 5.8 mph - N/A   Overcast
7:29 PM 30.2 °F 24.3 °F 30.2 °F 100% 30.21 in 0.5 mi NNE 5.8 mph - N/A Fog Light Freezing Fog
7:53 PM 30.9 °F 24.3 °F 30.0 °F 96% 30.25 in 0.5 mi NNE 6.9 mph - N/A Fog Light Freezing Fog
8:02 PM 30.2 °F 24.3 °F 30.2 °F 100% 30.20 in 0.2 mi NE 5.8 mph - N/A Fog Light Freezing Fog
8:12 PM 30.2 °F 25.4 °F 30.2 °F 100% 30.20 in 0.5 mi NE 4.6 mph - N/A Fog Light Freezing Fog
8:33 PM 30.2 °F 23.4 °F 30.2 °F 100% 30.19 in 0.2 mi ENE 6.9 mph - N/A Fog Light Freezing Fog
8:53 PM 30.9 °F 25.2 °F 30.0 °F 96% 30.23 in 0.2 mi NE 5.8 mph - N/A Fog Light Freezing Fog
9:05 PM 30.2 °F 25.4 °F 30.2 °F 100% 30.19 in 0.5 mi NE 4.6 mph - N/A Fog Light Freezing Fog
9:53 PM 30.9 °F 27.5 °F 30.9 °F 100% 30.24 in 0.5 mi NNE 3.5 mph - N/A Fog Light Freezing Fog
10:29 PM 30.2 °F - 30.2 °F 100% 30.21 in 0.2 mi Calm Calm - N/A Fog Light Freezing Fog
10:38 PM 30.2 °F 25.4 °F 30.2 °F 100% 30.20 in 0.5 mi NNE 4.6 mph - N/A Fog Light Freezing Fog
10:53 PM 30.9 °F 26.2 °F 30.9 °F 100% 30.24 in 0.5 mi NNE 4.6 mph - N/A Fog Light Freezing Fog
11:53 PM 30.9 °F 27.5 °F 30.9 °F 100% 30.22 in 0.5 mi NNE 3.5 mph - N/A Fog Light Freezing Fog